CZ-3B R/B, 56565

Orbit data source: Space-Track

CZ-3B R/B, 56565 is space debris in HEO originally from a launch on Wed, 17 May 2023 UTC launched from the Xichang Space Center, China (XSC). Debris objects in space refer to the collection of defunct objects orbiting the Earth. Examples of debris include non-operational satellites, rocket bodies, and fragments generated from explosions, collisions, or faulty payload assembly.

Loading next visibility...
Identifier
56565, 2023-066B
Orbit
HEO
Country
Flag of CNCN / PRC
Related business
Manufacturer
CALT
Mission
Spacecraft
Bus & Motor
CZ-3A STAGE 3, Unknown motor
Mass
~2,800 kg wet, ~2,800 kg dry
Launch date (UTC)
2023-05-17 (3 years ago)
Launch vehicle
Unknown
Launch site
Xichang Space Center, China (XSC)
Object type
Payload
Rocket body
Debris
Shape & HBR
Cyl + 1 Nozzle, 6.2 m
Radar Cross Section
32.704 m², Large (>1 m²)

Expand to show TLE details & history
Last TLE update: 1 day ago

TLE from 1 day ago
0 CZ-3B R/B
1 56565U 23066B   26093.13947833  .00286724  52769-6  15931-2 0  9997
2 56565  28.1103 209.9731 5234378  20.0476 354.5392  5.40025472 41056
Epoch: 2026-04-03T03:20Z
TLE epoch observation values (Epoch: 2026-04-03T03:20:50.927Z)
Latitude
0.00015°
Longitude
-31.71463°
Altitude
297.934 km
Speed
9.506 km/s
True Right ascension
13h 59m 54s
True Declination
0° 00' 01"
Sunlit
Object was in full shadow at epoch
Visualization orbit readout
Latitude
Unknown
Longitude
Unknown
Altitude
Unknown
Speed
Unknown
Apparent Right ascension
Unknown
Apparent Declination
Unknown
Sunlit
N/A
Visualization observer readout
Local Sidereal Time
11:21:23
Azimuth
Unknown
Elevation
Unknown
Doppler factor
Unknown
Orbital elements
Apogee altitude
14,533.764 km
Perigee altitude
163.529 km
Semi-major axis
13,726.784 km
Eccentricity
0.52344
Inclination
28.1103°
RAAN
209.9731°
Arg. of periapsis
20.0476°
True anomaly
339.80366°
Mean anomaly
354.5392°
Eccentric anomaly
348.62322°
Mean motion
1.34955 °/min
Orbital period
266.75 mins
BSTAR
0.0015931
Loading maneuver chart data...
Computing Atmospheric mass density...
Loading historical data...
Loading historical data...
Loading historical data...
Loading historical data...
Loading historical data...
Loading historical data...
Loading historical data...
Other satellites on launch #66 in the year 2023 (2023-05-17 UTC)

Documentation

Showing up to 5 results
|